Regional Weather Roundup
Issued by NWS Green Bay, WI

Home | Current Version | Previous Version | Graphics & Text | Print | Product List | Glossary Off
Versions: 1 2 3 4 5 6 7 8 9 10 11 12 13 14 15 16 17 18 19 20 21 22 23 24 25 26 27 28 29 30 31 32 33 34 35 36 37 38 39 40 41 42 43 44 45 46 47 48 49 50

000
ASUS43 KGRB 291300
RWRGRB

NORTH-CENTRAL AND NORTHEAST WISCONSIN REGIONAL WEATHER ROUNDUP
NATIONAL WEATHER SERVICE GREEN BAY WI
800 AM CDT THU SEP 29 2016

WIZ005-009-010>012-018-019-291400-
NORTH CENTRAL WISCONSIN

CITY           SKY/WX    TMP DP  RH WIND       PRES   REMARKS
IRONWOOD       CLOUDY    53  52  96 NE5       30.48R
MANITOWISH WTR NOT AVBL
ARBOR VITAE    NOT AVBL
EAGLE RIVER    NOT AVBL
LAND O LAKES   NOT AVBL
RHINELANDER    CLOUDY    49  49 100 VRB6      30.44R
PHILLIPS       NOT AVBL
ANTIGO         NOT AVBL
TOMAHAWK       NOT AVBL
MERRILL        NOT AVBL
$$

WIZ013-073-291400-
NORTHEAST WISCONSIN

CITY           SKY/WX    TMP DP  RH WIND       PRES   REMARKS
IRON MOUNTAIN  CLOUDY    51  48  89 NW6       30.41R
MARINETTE      SUNNY     54  51  90 N8        30.37R
$$

WIZ017-030-035>037-045-291400-
CENTRAL WISCONSIN

CITY           SKY/WX    TMP DP  RH WIND       PRES   REMARKS
MEDFORD        NOT AVBL
WAUSAU         SUNNY     49  46  90 N6        30.38S
MOSINEE        NOT AVBL
MARSHFIELD     SUNNY     51  46  83 NE9       30.38R
WISC RAPIDS    SUNNY     51  48  89 N12       30.38R
STEVENS POINT  NOT AVBL
WAUPACA        NOT AVBL
SHAWANO        NOT AVBL
CLINTONVILLE   NOT AVBL
WAUTOMA        SUNNY     53  49  86 NE10G16   30.35R
$$

WIZ038-039-048-051-291400-
FOX VALLEY

CITY           SKY/WX    TMP DP  RH WIND       PRES   REMARKS
NWS GREEN BAY  CLOUDY    54  53  97 N16       30.33R
APPLETON       PTSUNNY   52  52 100 N10       30.32R
OSHKOSH        CLOUDY    55  52  89 N14       30.32R
FOND DU LAC    CLOUDY    57  54  89 N14       30.31R
$$

WIZ022-050-052-291400-
EAST CENTRAL WISCONSIN

CITY           SKY/WX    TMP DP  RH WIND       PRES   REMARKS
EPHRAIM        NOT AVBL
WASHINGTON ISL NOT AVBL
STURGEON BAY   SUNNY     59  56  89 N10       30.35R
MANITOWOC      NOT AVBL
SHEBOYGAN      SUNNY     59  55  87 N13       30.28R
$$

LMZ563-521-522-541>543-291400-
LAKESHORE

STATION/POSITION TIME  TEMP    WIND        PRES    VSBY  WAVE
                       AIR SEA DIR/SP/G                  HT/PER
                 (UTC) (F)     (DEG/KT/KT) (MB)    (MI)  (FT/S)
SHEBOYGAN LKSHOR 1200   58      10/ 21/ 23 1024.4R
KEWAUNEE LKSHORE 1200   57     360/  8/ 14 1025.4R
NORTHPORT PIER   1200   60      20/ 11/ 15 1027.4R
N MID LAKE BUOY  1150   62 66   20/ 17/ 21 1026.2R         3/ 5
CHAMBERS ISLAND  1200   59     350/ 20/ 23 1026.8R
MENOMINEE LKSHOR 1200   56     350/ 14/ 16 1026.5R
$$



USA.gov is the U.S. government's official web portal to all federal, state and local government web resources and services.